DW8426 Weather Reports


time (UTC)temp
F
wind
direction
speed
knots
gust
knots
rain 1hr
in
rain 24hr
in
rain mn
in
humidity
%
barometer
mb
20260906154606 83 31 1.7 8.7 0.00 0.00 0.00 71 1017.5
20260906153129 82 317 2.6 7.8 0.00 0.00 0.00 72 1017.1
20260906151604 82 360 2.6 8.7 0.00 0.00 0.00 73 1016.9
20260906150110 81 360 1.7 7.0 0.00 0.00 0.00 76 1016.7
20260906144608 80 77 0.9 5.2 0.00 0.00 0.00 78 1016.6
20260906143106 79 360 0.9 5.2 0.00 0.00 0.00 80 1016.6
20260906141622 78 360 1.7 7.0 0.00 0.00 0.00 81 1016.5
20260906140107 77 344 1.7 5.2 0.00 0.00 0.00 82 1016.3
20260906134606 76 32 0.9 7.0 0.00 0.00 0.00 83 1016.3
20260906133112 76 352 1.7 5.2 0.00 0.00 0.00 83 1016.4
20260906131610 75 5 0.9 3.5 0.00 0.00 0.00 85 1016.3
20260906130109 74 336 0.0 3.5 0.00 0.00 0.00 86 1016.5
20260906124607 74 346 0.0 2.6 0.00 0.00 0.00 86 1016.3
20260906123110 74 0 0.0 1.7 0.00 0.00 0.00 86 1016.2
20260906121616 74 0 0.0 1.7 0.00 0.00 0.00 86 1016.0
20260906120127 74 0 0.0 1.7 0.00 0.00 0.00 85 1015.9
20260906114604 75 65 0.0 1.7 0.00 0.00 0.00 85 1015.5
20260906113105 75 0 0.0 1.7 0.00 0.00 0.00 85 1015.5
20260906111607 75 327 0.0 1.7 0.00 0.00 0.00 84 1015.5
20260906110107 76 0 0.0 0.9 0.00 0.00 0.00 83 1015.5
20260906104608 76 352 0.0 1.7 0.00 0.00 0.00 83 1015.3
20260906103113 76 0 0.0 0.9 0.00 0.00 0.00 84 1015.2
20260906101625 77 0 0.0 1.7 0.00 0.00 0.00 83 1015.1
20260906100108 77 0 0.0 1.7 0.00 0.00 0.00 83 1014.9
20260906094606 77 0 0.0 1.7 0.00 0.00 0.00 83 1014.7
20260906093109 78 0 0.0 2.6 0.00 0.00 0.00 83 1014.8
20260906091604 78 0 0.0 2.6 0.00 0.00 0.00 82 1014.8
20260906090104 78 0 0.0 2.6 0.00 0.00 0.00 82 1014.8
20260906084605 79 0 0.0 2.6 0.00 0.00 0.00 82 1014.5
20260906083106 79 0 0.0 2.6 0.00 0.00 0.00 82 1014.3
20260906081606 80 28 0.0 2.6 0.00 0.00 0.00 83 1014.4
20260906080106 80 11 0.0 2.6 0.00 0.00 0.00 82 1014.2
20260906074602 81 0 0.0 1.7 0.00 0.00 0.00 82 1014.3
20260906073104 81 0 0.0 4.3 0.00 0.00 0.00 82 1014.4
20260906071607 81 0 0.0 2.6 0.00 0.00 0.00 81 1014.5
20260906070108 82 0 0.0 3.5 0.00 0.00 0.00 81 1014.4
20260906064606 82 0 0.0 2.6 0.00 0.00 0.00 80 1014.3
20260906063106 82 0 0.0 1.7 0.00 0.00 0.00 80 1014.4
20260906061606 81 0 0.0 2.6 0.00 0.00 0.00 79 1014.3
20260906060136 81 342 0.0 0.0 0.00 0.00 0.00 78 1014.3
20260906054617 82 0 0.0 0.0 0.00 0.00 0.00 76 1014.3
20260906053105 82 0 0.0 0.0 0.00 0.00 0.00 75 1014.3
20260906051607 82 0 0.0 0.0 0.00 0.00 0.00 75 1014.4
20260906050107 82 0 0.0 0.0 0.00 0.00 0.00 74 1014.3
20260906044605 82 0 0.0 0.0 0.00 0.00 0.00 74 1014.2
20260906043104 83 0 0.0 0.0 0.00 0.00 0.00 73 1014.2
20260906041607 83 0 0.0 0.0 0.00 0.00 0.00 73 1014.0
20260906040109 83 0 0.0 0.0 0.00 0.00 0.00 72 1013.9
20260906034607 83 0 0.0 0.0 0.00 0.00 0.00 71 1013.8
20260906033106 84 0 0.0 0.0 0.00 0.00 0.00 71 1013.7
20260906031602 84 0 0.0 0.0 0.00 0.00 0.00 69 1013.6
20260906030101 85 0 0.0 0.0 0.00 0.00 0.00 68 1013.4
20260906024621 85 0 0.0 0.0 0.00 0.00 0.00 67 1013.2
20260906023104 86 0 0.0 0.0 0.00 0.00 0.00 66 1013.0
20260906021606 86 0 0.0 0.0 0.00 0.00 0.00 65 1012.8
20260906020114 87 0 0.0 0.0 0.00 0.00 0.00 64 1012.7
20260906014612 88 0 0.0 0.0 0.00 0.00 0.00 62 1012.4
20260906013108 89 0 0.0 0.0 0.00 0.00 0.00 60 1012.2
20260906011607 90 0 0.0 0.9 0.00 0.00 0.00 59 1012.1
20260906010145 90 0 0.0 0.9 0.00 0.00 0.00 58 1012.1
20260906004617 91 0 0.0 1.7 0.00 0.00 0.00 55 1012.0
20260906003105 92 0 0.0 3.5 0.00 0.00 0.00 54 1011.8
20260906001608 93 0 0.9 5.2 0.00 0.00 0.00 52 1012.0
20260906000105 93 342 0.9 3.5 0.00 0.00 0.00 51 1012.0
20260905234610 94 0 0.0 0.9 0.00 0.00 0.00 52 1011.9
20260905233103 94 0 0.0 2.6 0.00 0.00 0.00 51 1012.1
20260905231622 95 350 0.9 5.2 0.00 0.00 0.00 49 1012.1
20260905230108 96 0 0.0 3.5 0.00 0.00 0.00 47 1012.3
20260905224607 97 217 0.0 7.0 0.00 0.00 0.00 45 1012.2
20260905223105 98 277 1.7 7.8 0.00 0.00 0.00 43 1012.1
20260905221607 100 0 0.0 7.8 0.00 0.00 0.00 38 1011.9
20260905220107 103 337 3.5 8.7 0.00 0.00 0.00 38 1012.0
20260905214605 104 5 2.6 10.4 0.00 0.00 0.00 38 1012.1
20260905213104 104 116 1.7 7.0 0.00 0.00 0.00 37 1012.1
20260905211613 103 360 1.7 7.8 0.00 0.00 0.00 38 1012.0
20260905210123 102 352 2.6 10.4 0.00 0.00 0.00 38 1012.1
20260905204609 102 9 4.3 11.3 0.00 0.00 0.00 36 1012.3
20260905203101 103 314 4.3 11.3 0.00 0.00 0.00 40 1012.3
20260905201605 104 5 6.1 12.2 0.00 0.00 0.00 37 1012.4
20260905200135 105 11 5.2 11.3 0.00 0.00 0.00 38 1012.5
20260905194604 104 331 3.5 9.6 0.00 0.00 0.00 37 1012.4
20260905193103 104 348 3.5 11.3 0.00 0.00 0.00 36 1012.7
20260905191606 103 257 1.7 7.8 0.00 0.00 0.00 35 1012.9
20260905190105 102 188 1.7 5.2 0.00 0.00 0.00 37 1012.9
20260905184611 103 267 0.9 7.0 0.00 0.00 0.00 35 1013.2
20260905183106 103 259 1.7 5.2 0.00 0.00 0.00 37 1013.2
20260905181607 102 268 1.7 7.0 0.00 0.00 0.00 38 1013.3
20260905180108 102 9 2.6 7.8 0.00 0.00 0.00 39 1013.5
20260905174611 101 223 0.9 4.3 0.00 0.00 0.00 41 1013.8
20260905173105 101 290 0.0 5.2 0.00 0.00 0.00 41 1013.9
20260905171606 100 352 1.7 7.8 0.00 0.00 0.00 46 1014.0
20260905170104 99 352 0.9 7.8 0.00 0.00 0.00 45 1014.3
20260905164610 99 275 0.9 7.0 0.00 0.00 0.00 46 1014.4
20260905163109 98 275 0.9 3.5 0.00 0.00 0.00 47 1014.5
20260905161608 97 230 0.9 2.6 0.00 0.00 0.00 49 1014.6
20260905160104 96 332 0.9 5.2 0.00 0.00 0.00 49 1014.7